EW7244 Weather Reports


time (UTC)temp
C
wind
direction
speed
KPH
gust
KPH
rain 1hr
cm
rain 24hr
cm
rain mn
cm
humidity
%
barometer
mb
20260904121505 29 113 0.0 0.0 0.00 0.00 0.00 48 1014.0
20260904120004 28 113 0.0 0.0 0.00 0.00 0.00 48 1014.3
20260904114559 28 132 0.0 0.0 0.00 0.00 0.00 50 1014.4
20260904113057 28 63 0.0 0.0 0.00 0.00 0.00 50 1014.6
20260904111558 27 123 0.0 0.0 0.00 0.00 0.00 52 1014.7
20260904110047 27 328 0.0 1.6 0.00 0.00 0.00 52 1014.8
20260904104544 26 148 0.0 0.0 0.00 0.00 0.00 54 1014.9
20260904103044 26 138 0.0 0.0 0.00 0.00 0.00 56 1015.1
20260904101540 26 147 0.0 0.0 0.00 0.00 0.00 58 1015.2
20260904100036 25 184 0.0 0.0 0.00 0.00 0.00 61 1015.4
20260904094608 24 143 0.0 0.0 0.00 0.00 0.00 61 1015.5
20260904093048 23 160 0.0 0.0 0.00 0.00 0.00 64 1015.5
20260904091543 23 94 0.0 1.6 0.00 0.00 0.00 65 1015.7
20260904090008 23 120 0.0 0.0 0.00 0.00 0.00 67 1015.7
20260904084550 22 115 0.0 0.0 0.00 0.00 0.00 70 1015.8
20260904083044 22 71 0.0 0.0 0.00 0.00 0.00 71 1016.0
20260904081636 21 127 0.0 0.0 0.00 0.00 0.00 72 1016.1
20260904080053 21 114 0.0 0.0 0.00 0.00 0.00 73 1016.2
20260904074604 20 135 0.0 0.0 0.00 0.00 0.00 76 1016.3
20260904073100 20 140 0.0 0.0 0.00 0.00 0.00 76 1016.3
20260904071541 20 128 0.0 0.0 0.00 0.00 0.00 77 1016.4
20260904064546 19 113 0.0 0.0 0.00 0.00 0.00 79 1016.3
20260904063044 20 115 0.0 0.0 0.00 0.00 0.00 79 1016.3
20260904061620 20 208 0.0 0.0 0.00 0.00 0.00 78 1016.3
20260904060036 18 271 0.0 0.0 0.00 0.00 0.00 81 1016.3
20260904054526 18 274 0.0 0.0 0.00 0.00 0.00 81 1016.3
20260904053005 17 274 0.0 0.0 0.00 0.00 0.00 84 1016.2
20260904051556 17 275 0.0 0.0 0.00 0.00 0.00 85 1016.0
20260904050040 16 275 0.0 0.0 0.00 0.00 0.00 86 1015.8
20260904044546 16 275 0.0 0.0 0.00 0.00 0.00 85 1015.7
20260904043106 16 275 0.0 0.0 0.00 0.00 0.00 85 1015.7
20260904041549 17 275 0.0 0.0 0.00 0.00 0.00 84 1015.7
20260904040041 17 275 0.0 0.0 0.00 0.00 0.00 84 1015.7
20260904034548 17 275 0.0 0.0 0.00 0.00 0.00 84 1015.7
20260904033050 17 275 0.0 0.0 0.00 0.00 0.00 84 1015.7
20260904031545 17 275 0.0 0.0 0.00 0.00 0.00 83 1015.6
20260904030056 17 275 0.0 0.0 0.00 0.00 0.00 82 1015.6
20260904024553 17 275 0.0 0.0 0.00 0.00 0.00 81 1015.6
20260904023146 18 275 0.0 0.0 0.00 0.00 0.00 81 1015.7
20260904020128 18 275 0.0 0.0 0.00 0.00 0.00 80 1015.6
20260904014640 18 275 0.0 0.0 0.00 0.00 0.00 80 1015.4
20260904013053 18 275 0.0 0.0 0.00 0.00 0.00 81 1015.4
20260904011539 18 275 0.0 0.0 0.00 0.00 0.00 81 1015.5
20260904010051 18 275 0.0 0.0 0.00 0.00 0.00 80 1015.4
20260904004542 18 275 0.0 0.0 0.00 0.00 0.00 78 1015.4
20260904003023 18 275 0.0 0.0 0.00 0.00 0.00 78 1015.4
20260904001514 19 275 0.0 0.0 0.00 0.00 0.00 78 1015.5
20260904000139 18 275 0.0 0.0 0.00 0.00 0.00 80 1015.4
20260903234545 18 275 0.0 0.0 0.00 0.00 0.00 79 1015.4
20260903233046 19 275 0.0 0.0 0.00 0.00 0.00 78 1015.3
20260903231648 19 275 0.0 0.0 0.00 0.00 0.00 77 1015.3
20260903230105 19 276 0.0 0.0 0.00 0.00 0.00 77 1015.3
20260903224558 19 275 0.0 0.0 0.00 0.00 0.00 78 1015.3
20260903223047 19 276 0.0 0.0 0.00 0.00 0.00 77 1015.3
20260903221549 20 276 0.0 0.0 0.00 0.00 0.00 77 1015.3
20260903220038 20 276 0.0 0.0 0.00 0.00 0.00 77 1015.2
20260903214558 20 276 0.0 0.0 0.00 0.00 0.00 76 1015.0
20260903213050 20 276 0.0 0.0 0.00 0.00 0.00 76 1014.8
20260903211543 20 276 0.0 0.0 0.00 0.00 0.00 74 1014.7
20260903210055 20 276 0.0 0.0 0.00 0.00 0.00 73 1014.7
20260903204549 21 277 0.0 0.0 0.00 0.00 0.00 74 1014.6
20260903203043 21 277 0.0 0.0 0.00 0.00 0.00 72 1014.5
20260903201556 21 277 0.0 0.0 0.00 0.00 0.00 72 1014.5
20260903200052 21 277 0.0 0.0 0.00 0.00 0.00 71 1014.6
20260903194551 22 277 0.0 0.0 0.00 0.00 0.00 70 1014.5
20260903193054 22 277 0.0 0.0 0.00 0.00 0.00 68 1014.4
20260903191547 22 277 0.0 0.0 0.00 0.00 0.00 69 1014.3
20260903190018 22 278 0.0 0.0 0.00 0.00 0.00 70 1014.2
20260903184519 22 279 0.0 0.0 0.00 0.00 0.00 70 1014.1
20260903183056 22 279 0.0 0.0 0.00 0.00 0.00 68 1013.9
20260903181553 23 279 0.0 0.0 0.00 0.00 0.00 67 1013.7
20260903180051 23 288 0.0 0.0 0.00 0.00 0.00 63 1013.6
20260903174554 23 315 0.0 0.0 0.00 0.00 0.00 62 1013.4
20260903173053 24 317 0.0 0.0 0.00 0.00 0.00 63 1013.4
20260903171553 25 318 0.0 0.0 0.00 0.00 0.00 60 1013.3
20260903170053 25 317 0.0 0.0 0.00 0.00 0.00 61 1013.3
20260903164559 25 319 0.0 0.0 0.00 0.00 0.00 60 1013.3
20260903163108 26 319 0.0 0.0 0.00 0.00 0.00 59 1013.2
20260903161548 26 319 0.0 0.0 0.00 0.00 0.00 58 1013.1
20260903160106 27 319 0.0 0.0 0.00 0.00 0.00 57 1013.1
20260903154654 27 74 0.0 0.0 0.00 0.00 0.00 52 1013.0
20260903153049 27 65 0.0 0.0 0.00 0.00 0.00 49 1012.9
20260903151605 28 90 0.0 0.0 0.00 0.00 0.00 47 1012.8
20260903150113 28 360 0.0 0.0 0.00 0.00 0.00 47 1012.7
20260903144552 29 46 0.0 0.0 0.00 0.00 0.00 47 1012.6
20260903143042 29 5 0.0 0.0 0.00 0.00 0.00 48 1012.7
20260903141556 29 355 0.0 0.0 0.00 0.00 0.00 49 1013.1
20260903140029 29 101 0.0 0.0 0.00 0.00 0.00 45 1013.2
20260903134607 29 339 0.0 0.0 0.00 0.00 0.00 47 1013.3
20260903133051 28 121 0.0 0.0 0.00 0.00 0.00 50 1013.4
20260903131543 28 61 0.0 0.0 0.00 0.00 0.00 48 1013.4
20260903130042 28 135 0.0 0.0 0.00 0.00 0.00 47 1013.4
20260903124602 29 227 0.0 0.0 0.00 0.00 0.00 47 1013.5
20260903123053 28 156 0.0 0.0 0.00 0.00 0.00 49 1013.6